Time,TemperatureF,DewpointF,PressureIn,WindDirection,WindDirectionDegrees,WindSpeedMPH,WindSpeedGustMPH,Humidity,HourlyPrecipIn,Conditions,Clouds,dailyrainin,SoftwareType,DateUTC
2013-02-17 00:02:00,6.0,-2.0,30.14,SW,233,0.0,0.0,68,0.00,,,0.00,,2013-02-17 06:02:00,
2013-02-17 00:11:00,6.0,-2.0,30.14,SW,233,0.0,0.0,68,0.00,,,0.00,,2013-02-17 06:11:00,
2013-02-17 00:21:00,6.0,-2.0,30.14,SW,233,0.0,0.0,69,0.00,,,0.00,,2013-02-17 06:21:00,
2013-02-17 00:31:00,6.0,-2.0,30.14,SW,233,0.0,0.0,69,0.00,,,0.00,,2013-02-17 06:31:00,
2013-02-17 00:42:00,6.0,-2.0,30.14,SW,233,0.0,0.0,69,0.00,,,0.00,,2013-02-17 06:42:00,
2013-02-17 00:52:00,6.0,-2.0,30.14,SW,233,0.0,1.0,70,0.00,,,0.00,,2013-02-17 06:52:00,
2013-02-17 01:01:00,6.0,-2.0,30.14,SW,233,0.0,1.0,70,0.00,,,0.00,,2013-02-17 07:01:00,
2013-02-17 01:11:00,5.0,-2.0,30.14,SW,233,0.0,0.0,71,0.00,,,0.00,,2013-02-17 07:11:00,
2013-02-17 01:21:00,5.0,-2.0,30.14,SW,233,0.0,0.0,71,0.00,,,0.00,,2013-02-17 07:21:00,
2013-02-17 01:31:00,5.0,-2.0,30.14,SW,233,0.0,0.0,71,0.00,,,0.00,,2013-02-17 07:31:00,
2013-02-17 01:42:00,5.0,-2.0,30.14,SW,233,0.0,0.0,71,0.00,,,0.00,,2013-02-17 07:42:00,
2013-02-17 01:52:00,6.0,-1.0,30.13,SW,233,0.0,0.0,71,0.00,,,0.00,,2013-02-17 07:52:00,
2013-02-17 02:01:00,6.0,-1.0,30.13,SW,233,0.0,0.0,71,0.00,,,0.00,,2013-02-17 08:01:00,
2013-02-17 02:11:00,6.0,-1.0,30.13,SW,233,0.0,0.0,71,0.00,,,0.00,,2013-02-17 08:11:00,
2013-02-17 02:21:00,7.0,0.0,30.14,SW,233,0.0,0.0,71,0.00,,,0.00,,2013-02-17 08:21:00,
2013-02-17 02:31:00,7.0,0.0,30.14,SW,233,0.0,0.0,71,0.00,,,0.00,,2013-02-17 08:31:00,
2013-02-17 02:42:00,7.0,0.0,30.14,SW,233,0.0,0.0,71,0.00,,,0.00,,2013-02-17 08:42:00,
2013-02-17 02:52:00,7.0,-1.0,30.13,SW,233,0.0,0.0,70,0.00,,,0.00,,2013-02-17 08:52:00,
2013-02-17 03:01:00,7.0,-1.0,30.13,SW,233,0.0,0.0,70,0.00,,,0.00,,2013-02-17 09:01:00,
2013-02-17 03:11:00,7.0,-1.0,30.13,SW,233,0.0,0.0,70,0.00,,,0.00,,2013-02-17 09:11:00,
2013-02-17 03:21:00,8.0,0.0,30.12,SW,233,0.0,0.0,69,0.00,,,0.00,,2013-02-17 09:21:00,
2013-02-17 03:31:00,8.0,0.0,30.12,SW,233,0.0,0.0,69,0.00,,,0.00,,2013-02-17 09:31:00,
2013-02-17 03:42:00,8.0,0.0,30.12,SW,233,0.0,0.0,69,0.00,,,0.00,,2013-02-17 09:42:00,
2013-02-17 03:52:00,8.0,0.0,30.11,SW,233,0.0,2.0,69,0.00,,,0.00,,2013-02-17 09:52:00,
2013-02-17 04:01:00,8.0,0.0,30.11,SW,233,0.0,2.0,69,0.00,,,0.00,,2013-02-17 10:01:00,
2013-02-17 04:11:00,8.0,0.0,30.11,SW,233,0.0,2.0,69,0.00,,,0.00,,2013-02-17 10:11:00,
2013-02-17 04:21:00,10.0,1.0,30.09,SW,232,0.0,2.0,67,0.00,,,0.00,,2013-02-17 10:21:00,
2013-02-17 04:31:00,10.0,1.0,30.09,SW,232,0.0,2.0,67,0.00,,,0.00,,2013-02-17 10:31:00,
2013-02-17 04:42:00,10.0,1.0,30.09,SW,232,0.0,2.0,67,0.00,,,0.00,,2013-02-17 10:42:00,
2013-02-17 04:52:00,11.0,2.0,30.09,SW,226,0.0,4.0,67,0.00,,,0.00,,2013-02-17 10:52:00,
2013-02-17 05:01:00,11.0,2.0,30.09,SW,226,0.0,4.0,67,0.00,,,0.00,,2013-02-17 11:01:00,
2013-02-17 05:11:00,11.0,2.0,30.09,SW,226,0.0,4.0,67,0.00,,,0.00,,2013-02-17 11:11:00,
2013-02-17 05:21:00,11.0,2.0,30.08,SW,215,1.0,4.0,66,0.00,,,0.00,,2013-02-17 11:21:00,
2013-02-17 05:32:00,11.0,2.0,30.08,SW,215,1.0,4.0,66,0.00,,,0.00,,2013-02-17 11:32:00,
2013-02-17 05:42:00,11.0,2.0,30.08,SW,215,1.0,4.0,66,0.00,,,0.00,,2013-02-17 11:42:00,
2013-02-17 05:52:00,11.0,2.0,30.07,South,173,0.0,5.0,66,0.00,,,0.00,,2013-02-17 11:52:00,
2013-02-17 06:03:00,11.0,2.0,30.07,South,173,0.0,5.0,66,0.00,,,0.00,,2013-02-17 12:03:00,
2013-02-17 06:11:00,11.0,2.0,30.07,South,173,0.0,5.0,66,0.00,,,0.00,,2013-02-17 12:11:00,
2013-02-17 06:22:00,11.0,2.0,30.07,SSE,168,0.0,2.0,67,0.00,,,0.00,,2013-02-17 12:22:00,
2013-02-17 06:32:00,11.0,2.0,30.07,SSE,168,0.0,2.0,67,0.00,,,0.00,,2013-02-17 12:32:00,
2013-02-17 06:42:00,11.0,2.0,30.07,SSE,168,0.0,2.0,67,0.00,,,0.00,,2013-02-17 12:42:00,
2013-02-17 06:52:00,11.0,2.0,30.05,SSE,153,1.0,5.0,67,0.00,,,0.00,,2013-02-17 12:52:00,
2013-02-17 07:02:00,11.0,2.0,30.05,SSE,153,1.0,5.0,67,0.00,,,0.00,,2013-02-17 13:02:00,
2013-02-17 07:12:00,11.0,2.0,30.05,SSE,153,1.0,5.0,67,0.00,,,0.00,,2013-02-17 13:12:00,
2013-02-17 07:21:00,11.0,2.0,30.03,SE,139,2.0,7.0,67,0.00,,,0.00,,2013-02-17 13:21:00,
2013-02-17 07:32:00,11.0,2.0,30.03,SE,139,2.0,7.0,67,0.00,,,0.00,,2013-02-17 13:32:00,
2013-02-17 07:42:00,11.0,2.0,30.03,SE,139,2.0,7.0,67,0.00,,,0.00,,2013-02-17 13:42:00,
2013-02-17 07:52:00,12.0,3.0,30.03,SE,137,0.0,8.0,67,0.00,,,0.00,,2013-02-17 13:52:00,
2013-02-17 08:01:00,12.0,3.0,30.03,SE,137,0.0,8.0,67,0.00,,,0.00,,2013-02-17 14:01:00,
2013-02-17 08:11:00,12.0,3.0,30.03,SE,137,0.0,8.0,67,0.00,,,0.00,,2013-02-17 14:11:00,
2013-02-17 08:21:00,13.0,4.0,30.02,SE,128,3.0,10.0,67,0.00,,,0.00,,2013-02-17 14:21:00,
2013-02-17 08:32:00,13.0,4.0,30.02,SE,128,3.0,10.0,67,0.00,,,0.00,,2013-02-17 14:32:00,
2013-02-17 08:42:00,13.0,4.0,30.02,SE,128,3.0,10.0,67,0.00,,,0.00,,2013-02-17 14:42:00,
2013-02-17 08:53:00,15.0,6.0,30.02,SSE,154,1.0,5.0,66,0.00,,,0.00,,2013-02-17 14:53:00,
2013-02-17 09:01:00,15.0,6.0,30.02,SSE,154,1.0,5.0,66,0.00,,,0.00,,2013-02-17 15:01:00,
2013-02-17 09:11:00,15.0,6.0,30.02,SSE,154,1.0,5.0,66,0.00,,,0.00,,2013-02-17 15:11:00,
2013-02-17 09:21:00,16.0,6.0,30.01,SE,127,1.0,11.0,64,0.00,,,0.00,,2013-02-17 15:21:00,
2013-02-17 09:31:00,16.0,6.0,30.01,SE,127,1.0,11.0,64,0.00,,,0.00,,2013-02-17 15:31:00,
2013-02-17 09:42:00,16.0,6.0,30.01,SE,127,1.0,11.0,64,0.00,,,0.00,,2013-02-17 15:42:00,
2013-02-17 09:52:00,17.0,7.0,30.01,South,171,1.0,11.0,63,0.00,,,0.00,,2013-02-17 15:52:00,
2013-02-17 10:01:00,17.0,7.0,30.01,South,171,1.0,11.0,63,0.00,,,0.00,,2013-02-17 16:01:00,
2013-02-17 10:11:00,17.0,7.0,30.01,South,171,1.0,11.0,63,0.00,,,0.00,,2013-02-17 16:11:00,
2013-02-17 10:21:00,19.0,8.0,30.00,SE,127,3.0,10.0,61,0.00,,,0.00,,2013-02-17 16:21:00,
2013-02-17 10:32:00,19.0,8.0,30.00,SE,127,3.0,10.0,61,0.00,,,0.00,,2013-02-17 16:32:00,
2013-02-17 10:42:00,19.0,8.0,30.00,SE,127,3.0,10.0,61,0.00,,,0.00,,2013-02-17 16:42:00,
2013-02-17 10:52:00,21.0,9.0,29.98,SE,142,3.0,12.0,59,0.00,,,0.00,,2013-02-17 16:52:00,
2013-02-17 11:02:00,21.0,9.0,29.98,SE,142,3.0,12.0,59,0.00,,,0.00,,2013-02-17 17:02:00,
2013-02-17 11:11:00,21.0,9.0,29.98,SE,142,3.0,12.0,59,0.00,,,0.00,,2013-02-17 17:11:00,
2013-02-17 11:21:00,22.0,9.0,29.98,SSE,154,8.0,14.0,57,0.00,,,0.00,,2013-02-17 17:21:00,
2013-02-17 11:32:00,22.0,9.0,29.98,SSE,154,8.0,14.0,57,0.00,,,0.00,,2013-02-17 17:32:00,
2013-02-17 11:42:00,22.0,9.0,29.98,SSE,154,8.0,14.0,57,0.00,,,0.00,,2013-02-17 17:42:00,
2013-02-17 11:52:00,24.0,11.0,29.96,SE,146,8.0,15.0,57,0.00,,,0.00,,2013-02-17 17:52:00,
2013-02-17 12:01:00,24.0,11.0,29.96,SE,146,8.0,15.0,57,0.00,,,0.00,,2013-02-17 18:01:00,
2013-02-17 12:11:00,24.0,11.0,29.96,SE,146,8.0,15.0,57,0.00,,,0.00,,2013-02-17 18:11:00,
2013-02-17 12:22:00,25.0,12.0,29.95,SE,131,4.0,13.0,57,0.00,,,0.00,,2013-02-17 18:22:00,
2013-02-17 12:33:00,25.0,12.0,29.95,SE,131,4.0,13.0,57,0.00,,,0.00,,2013-02-17 18:33:00,
2013-02-17 12:42:00,25.0,12.0,29.95,SE,131,4.0,13.0,57,0.00,,,0.00,,2013-02-17 18:42:00,
2013-02-17 12:52:00,27.0,13.0,29.92,ESE,122,11.0,19.0,56,0.00,,,0.00,,2013-02-17 18:52:00,
2013-02-17 13:01:00,27.0,13.0,29.92,ESE,122,11.0,19.0,56,0.00,,,0.00,,2013-02-17 19:01:00,
2013-02-17 13:11:00,27.0,13.0,29.92,ESE,122,11.0,19.0,56,0.00,,,0.00,,2013-02-17 19:11:00,
2013-02-17 13:21:00,28.0,14.0,29.91,SE,132,6.0,14.0,56,0.00,,,0.00,,2013-02-17 19:21:00,
2013-02-17 13:32:00,28.0,14.0,29.91,SE,132,6.0,14.0,56,0.00,,,0.00,,2013-02-17 19:32:00,
2013-02-17 13:42:00,28.0,14.0,29.91,SE,132,6.0,14.0,56,0.00,,,0.00,,2013-02-17 19:42:00,
2013-02-17 13:52:00,29.0,15.0,29.89,SE,126,4.0,14.0,56,0.00,,,0.00,,2013-02-17 19:52:00,
2013-02-17 14:02:00,29.0,15.0,29.89,SE,126,4.0,14.0,56,0.00,,,0.00,,2013-02-17 20:02:00,
2013-02-17 14:11:00,29.0,15.0,29.89,SE,126,4.0,14.0,56,0.00,,,0.00,,2013-02-17 20:11:00,
2013-02-17 14:21:00,29.0,14.0,29.88,SSE,156,12.0,20.0,54,0.00,,,0.00,,2013-02-17 20:21:00,
2013-02-17 14:32:00,29.0,14.0,29.88,SSE,156,12.0,20.0,54,0.00,,,0.00,,2013-02-17 20:32:00,
2013-02-17 14:42:00,29.0,14.0,29.88,SSE,156,12.0,20.0,54,0.00,,,0.00,,2013-02-17 20:42:00,
2013-02-17 14:52:00,30.0,15.0,29.85,SSE,151,9.0,19.0,54,0.00,,,0.00,,2013-02-17 20:52:00,
2013-02-17 15:01:00,30.0,15.0,29.85,SSE,151,9.0,19.0,54,0.00,,,0.00,,2013-02-17 21:01:00,
2013-02-17 15:11:00,30.0,15.0,29.85,SSE,151,9.0,19.0,54,0.00,,,0.00,,2013-02-17 21:11:00,
2013-02-17 15:21:00,31.0,17.0,29.84,SE,141,10.0,20.0,55,0.00,,,0.00,,2013-02-17 21:21:00,
2013-02-17 15:31:00,31.0,17.0,29.84,SE,141,10.0,20.0,55,0.00,,,0.00,,2013-02-17 21:31:00,
2013-02-17 15:42:00,31.0,17.0,29.84,SE,141,10.0,20.0,55,0.00,,,0.00,,2013-02-17 21:42:00,
2013-02-17 15:53:00,31.0,17.0,29.82,SSE,154,10.0,20.0,56,0.00,,,0.00,,2013-02-17 21:53:00,
2013-02-17 16:01:00,31.0,17.0,29.82,SSE,154,10.0,20.0,56,0.00,,,0.00,,2013-02-17 22:01:00,
2013-02-17 16:12:00,31.0,17.0,29.82,SSE,154,10.0,20.0,56,0.00,,,0.00,,2013-02-17 22:12:00,
2013-02-17 16:21:00,31.0,18.0,29.81,SE,131,11.0,22.0,57,0.00,,,0.00,,2013-02-17 22:21:00,
2013-02-17 16:32:00,31.0,18.0,29.81,SE,131,11.0,22.0,57,0.00,,,0.00,,2013-02-17 22:32:00,
2013-02-17 16:42:00,31.0,18.0,29.81,SE,131,11.0,22.0,57,0.00,,,0.00,,2013-02-17 22:42:00,
2013-02-17 16:52:00,31.0,18.0,29.80,SE,141,5.0,11.0,57,0.00,,,0.00,,2013-02-17 22:52:00,
2013-02-17 17:02:00,31.0,18.0,29.80,SE,141,5.0,11.0,57,0.00,,,0.00,,2013-02-17 23:02:00,
2013-02-17 17:11:00,31.0,18.0,29.80,SE,141,5.0,11.0,57,0.00,,,0.00,,2013-02-17 23:11:00,
2013-02-17 17:21:00,30.0,17.0,29.78,SSE,148,8.0,16.0,58,0.00,,,0.00,,2013-02-17 23:21:00,
2013-02-17 17:32:00,30.0,17.0,29.78,SSE,148,8.0,16.0,58,0.00,,,0.00,,2013-02-17 23:32:00,
2013-02-17 17:42:00,30.0,17.0,29.78,SSE,148,8.0,16.0,58,0.00,,,0.00,,2013-02-17 23:42:00,
2013-02-17 17:52:00,30.0,17.0,29.78,SE,133,7.0,20.0,58,0.00,,,0.00,,2013-02-17 23:52:00,
2013-02-17 18:01:00,30.0,17.0,29.78,SE,133,7.0,20.0,58,0.00,,,0.00,,2013-02-18 00:01:00,
2013-02-17 18:11:00,30.0,17.0,29.78,SE,133,7.0,20.0,58,0.00,,,0.00,,2013-02-18 00:11:00,
2013-02-17 18:22:00,30.0,17.0,29.77,ESE,113,5.0,16.0,59,0.00,,,0.00,,2013-02-18 00:22:00,
2013-02-17 18:31:00,30.0,17.0,29.77,ESE,113,5.0,16.0,59,0.00,,,0.00,,2013-02-18 00:31:00,
2013-02-17 18:42:00,30.0,17.0,29.77,ESE,113,5.0,16.0,59,0.00,,,0.00,,2013-02-18 00:42:00,
2013-02-17 18:52:00,29.0,17.0,29.77,SE,125,5.0,20.0,60,0.00,,,0.00,,2013-02-18 00:52:00,
2013-02-17 19:01:00,29.0,17.0,29.77,SE,125,5.0,20.0,60,0.00,,,0.00,,2013-02-18 01:01:00,
2013-02-17 19:12:00,29.0,17.0,29.77,SE,125,5.0,20.0,60,0.00,,,0.00,,2013-02-18 01:12:00,
2013-02-17 19:21:00,29.0,17.0,29.76,SE,141,3.0,12.0,61,0.00,,,0.00,,2013-02-18 01:21:00,
2013-02-17 19:31:00,29.0,17.0,29.76,SE,141,3.0,12.0,61,0.00,,,0.00,,2013-02-18 01:31:00,
2013-02-17 19:42:00,29.0,17.0,29.76,SE,141,3.0,12.0,61,0.00,,,0.00,,2013-02-18 01:42:00,
2013-02-17 19:52:00,29.0,17.0,29.77,SE,128,7.0,15.0,61,0.00,,,0.00,,2013-02-18 01:52:00,
2013-02-17 20:01:00,29.0,17.0,29.77,SE,128,7.0,15.0,61,0.00,,,0.00,,2013-02-18 02:01:00,
2013-02-17 20:11:00,29.0,17.0,29.77,SE,128,7.0,15.0,61,0.00,,,0.00,,2013-02-18 02:11:00,
2013-02-17 20:21:00,29.0,18.0,29.75,SE,126,7.0,15.0,62,0.00,,,0.00,,2013-02-18 02:21:00,
2013-02-17 20:32:00,29.0,18.0,29.75,SE,126,7.0,15.0,62,0.00,,,0.00,,2013-02-18 02:32:00,
2013-02-17 20:42:00,29.0,18.0,29.75,SE,126,7.0,15.0,62,0.00,,,0.00,,2013-02-18 02:42:00,
2013-02-17 20:52:00,28.0,17.0,29.75,SE,132,6.0,15.0,63,0.00,,,0.00,,2013-02-18 02:52:00,
2013-02-17 21:01:00,28.0,17.0,29.75,SE,132,6.0,15.0,63,0.00,,,0.00,,2013-02-18 03:01:00,
2013-02-17 21:11:00,28.0,17.0,29.75,SE,132,6.0,15.0,63,0.00,,,0.00,,2013-02-18 03:11:00,
2013-02-17 21:21:00,28.0,17.0,29.74,SE,130,3.0,15.0,63,0.00,,,0.00,,2013-02-18 03:21:00,
2013-02-17 21:31:00,28.0,17.0,29.74,SE,130,3.0,15.0,63,0.00,,,0.00,,2013-02-18 03:31:00,
2013-02-17 21:42:00,28.0,17.0,29.74,SE,130,3.0,15.0,63,0.00,,,0.00,,2013-02-18 03:42:00,
2013-02-17 21:52:00,28.0,17.0,29.73,SE,127,4.0,12.0,63,0.00,,,0.00,,2013-02-18 03:52:00,
2013-02-17 22:01:00,28.0,17.0,29.73,SE,127,4.0,12.0,63,0.00,,,0.00,,2013-02-18 04:01:00,
2013-02-17 22:11:00,28.0,17.0,29.73,SE,127,4.0,12.0,63,0.00,,,0.00,,2013-02-18 04:11:00,
2013-02-17 22:21:00,28.0,17.0,29.72,SE,142,4.0,14.0,64,0.00,,,0.00,,2013-02-18 04:21:00,
2013-02-17 22:32:00,28.0,17.0,29.72,SE,142,4.0,14.0,64,0.00,,,0.00,,2013-02-18 04:32:00,
2013-02-17 22:42:00,28.0,17.0,29.72,SE,142,4.0,14.0,64,0.00,,,0.00,,2013-02-18 04:42:00,
2013-02-17 22:52:00,28.0,18.0,29.71,SE,124,1.0,13.0,65,0.00,,,0.00,,2013-02-18 04:52:00,
2013-02-17 23:01:00,28.0,18.0,29.71,SE,124,1.0,13.0,65,0.00,,,0.00,,2013-02-18 05:01:00,
2013-02-17 23:11:00,28.0,18.0,29.71,SE,124,1.0,13.0,65,0.00,,,0.00,,2013-02-18 05:11:00,
2013-02-17 23:21:00,28.0,18.0,29.69,ESE,118,1.0,7.0,65,0.00,,,0.00,,2013-02-18 05:21:00,
2013-02-17 23:31:00,28.0,18.0,29.69,ESE,118,1.0,7.0,65,0.00,,,0.00,,2013-02-18 05:31:00,
2013-02-17 23:42:00,28.0,18.0,29.69,ESE,118,1.0,7.0,65,0.00,,,0.00,,2013-02-18 05:42:00,
2013-02-17 23:52:00,28.0,18.0,29.67,ESE,122,2.0,11.0,65,0.00,,,0.00,,2013-02-18 05:52:00,